Tracking 23611 objects as of 17-Sep-2021
HD Live streaming from Space Station
objects crossing your sky now
Track INSPIRATION-4

DELTA 1 DEB

Track DELTA 1 DEB now!
10-day predictions


NORAD ID: 12166
Int'l Code: 1978-026F
Perigee: 815.2 km
Apogee: 871.5 km
Inclination: 99.0 °
Period: 101.6 minutes
Semi major axis: 7214 km
RCS: 0.6029 m2 (medium)
Launch date: March 5, 1978
Source: United States (US)
Launch site: AIR FORCE WESTERN TEST RANGE (AFWTR)

Note: This is SATELLITE DEBRIS
aabbcc
Your satellite tracking list
Your tracking list is empty




NASA's NSSDC Master Catalog

Two Line Element Set (TLE):
1 12166U 78026F   21260.45841524  .00000079  00000-0  61753-4 0  9995
2 12166  98.9669 255.8771 0039047 110.9402  41.8775 14.16793142 94160
Source of the keplerian elements: AFSPC